Zurück zum Katalog

STARLINK-37057

AktivKommunikationSSO
NORAD 68161·PAYLOAD·🇺🇸 United States

Gestartet Mar 13, 2026 von Vandenberg Space Force Base

Loading…

Nächste Überflüge (nächste 24 Stunden)

TLE

AktuellSource: CelesTrak SupGP

Epoche: Sep 15, 2026, 03:23 UTC

1 68161C 26049V   26258.14145833 -.00056069  00000+0 -17407-2 0  2581
2 68161  97.2837 278.1374 0001130  94.9054  38.6968 15.33463762    19

Verfolge STARLINK-37057 in Echtzeit mit AllMySat

Download on the App Store